Simultaneous Nadir Overpasses (SNOs) Predictions

Prediction of SNOs between NOAA-20 and METOP-B Satellite Orbit:

Table of predicted SNOs for the next 14.0 days since TLE Epoch: 10/17/2022
Index Date (NOAA-20) Time (NOAA-20) Lat,Lon (NOAA-20) SZA (NOAA-20 ) Date (METOP-B) Time (METOP-B) Lat,Lon (METOP-B) SZA (METOP-B ) Distance(km) Time Diff (sec)
1 10/30/2022 18:42:57 73.49,-110.53 87.43 10/30/2022 18:44:03 73.43,-107.66 87.31 91.05 66
2 10/30/2022 19:33:40 -73.42, 56.94 92.63 10/30/2022 19:34:47 -73.34, 59.47 92.77 81.15 67
3 10/30/2022 20:24:21 73.19,-135.25 87.14 10/30/2022 20:25:31 73.10,-133.72 87.02 50.23 70
4 10/30/2022 21:15:03 -73.07, 32.32 92.97 10/30/2022 21:16:15 -73.02, 33.43 93.05 36.37 72
5 10/30/2022 22:05:45 72.89,-159.98 86.85 10/30/2022 22:06:58 72.83,-159.64 86.78 13.25 73
6 10/30/2022 22:56:28 -72.83, 7.47 93.21 10/30/2022 22:57:41 -72.80, 7.62 93.25 5.87 73
7 10/30/2022 23:47:12 72.75, 174.95 86.72 10/30/2022 23:48:21 72.76, 174.87 86.73 2.80 69
8 10/31/2022 00:37:57 -72.79, -17.81 93.23 10/31/2022 00:39:03 -72.78, -17.76 93.24 1.72 66
9 10/31/2022 01:28:42 72.76, 149.56 86.75 10/31/2022 01:29:43 72.74, 149.49 86.74 2.86 61
10 10/31/2022 02:19:26 -72.74, -43.09 93.25 10/31/2022 02:20:25 -72.76, -43.14 93.24 2.70 59
11 10/31/2022 03:10:12 72.76, 124.17 86.78 10/31/2022 03:11:04 72.77, 124.22 86.79 1.69 52



Historial Predications of SNOs between NOAA-20 and METOP-B
